| time (UTC) | temp F | wind direction | speed MPH | gust MPH | rain 1hr in | rain 24hr in | rain mn in | humidity % | barometer mb |
| 20260507044555 | 43 | 109 | 6.0 | 7.0 | 0.00 | 0.00 | 0.00 | 43 | 1012.3 |
| 20260507043053 | 45 | 103 | 6.0 | 7.0 | 0.00 | 0.00 | 0.00 | 38 | 1012.5 |
| 20260507041558 | 46 | 146 | 1.0 | 2.0 | 0.00 | 0.00 | 0.00 | 37 | 1012.6 |
| 20260507034608 | 47 | 217 | 0.0 | 1.0 | 0.00 | 0.00 | 0.00 | 37 | 1012.9 |
| 20260507033102 | 47 | 215 | 0.0 | 2.0 | 0.00 | 0.00 | 0.00 | 36 | 1013.1 |
| 20260507031546 | 49 | 217 | 0.0 | 1.0 | 0.00 | 0.00 | 0.00 | 35 | 1013.2 |
| 20260507030045 | 49 | 216 | 0.0 | 1.0 | 0.00 | 0.00 | 0.00 | 34 | 1013.3 |
| 20260507024554 | 49 | 212 | 1.0 | 2.0 | 0.00 | 0.00 | 0.00 | 35 | 1013.3 |
| 20260507023044 | 50 | 207 | 0.0 | 2.0 | 0.00 | 0.00 | 0.00 | 36 | 1013.2 |
| 20260507021544 | 49 | 205 | 1.0 | 2.0 | 0.00 | 0.00 | 0.00 | 35 | 1013.4 |
| 20260507020045 | 49 | 198 | 2.0 | 4.0 | 0.00 | 0.00 | 0.00 | 35 | 1013.4 |
| 20260507014542 | 50 | 213 | 2.0 | 5.0 | 0.00 | 0.00 | 0.00 | 34 | 1013.4 |
| 20260507013041 | 51 | 300 | 3.0 | 6.0 | 0.00 | 0.00 | 0.00 | 34 | 1013.5 |
| 20260507011541 | 52 | 229 | 4.0 | 7.0 | 0.00 | 0.00 | 0.00 | 33 | 1013.6 |
| 20260507010041 | 54 | 244 | 6.0 | 10.0 | 0.00 | 0.00 | 0.00 | 30 | 1013.6 |
| 20260507004538 | 55 | 243 | 5.0 | 9.0 | 0.00 | 0.00 | 0.00 | 29 | 1013.6 |
| 20260507003038 | 55 | 240 | 6.0 | 11.0 | 0.00 | 0.00 | 0.00 | 29 | 1013.8 |
| 20260507001551 | 54 | 238 | 6.0 | 12.0 | 0.00 | 0.00 | 0.00 | 30 | 1014.0 |
| 20260507000033 | 55 | 217 | 5.0 | 12.0 | 0.00 | 0.00 | 0.00 | 29 | 1014.2 |
| 20260506234545 | 55 | 183 | 7.0 | 12.0 | 0.00 | 0.00 | 0.00 | 29 | 1014.3 |
| 20260506233031 | 55 | 209 | 8.0 | 14.0 | 0.00 | 0.00 | 0.00 | 28 | 1014.5 |
| 20260506231535 | 56 | 221 | 8.0 | 14.0 | 0.00 | 0.00 | 0.00 | 28 | 1014.4 |
| 20260506230028 | 55 | 235 | 7.0 | 18.0 | 0.00 | 0.00 | 0.00 | 28 | 1014.6 |
| 20260506224529 | 56 | 248 | 11.0 | 18.0 | 0.00 | 0.00 | 0.00 | 28 | 1014.6 |
| 20260506223024 | 55 | 190 | 8.0 | 13.0 | 0.00 | 0.00 | 0.00 | 29 | 1014.8 |
| 20260506221522 | 55 | 206 | 8.0 | 17.0 | 0.00 | 0.00 | 0.00 | 29 | 1014.9 |
| 20260506220031 | 55 | 232 | 6.0 | 14.0 | 0.00 | 0.00 | 0.00 | 28 | 1015.1 |
| 20260506214518 | 55 | 254 | 6.0 | 12.0 | 0.00 | 0.00 | 0.00 | 29 | 1015.4 |
| 20260506213017 | 55 | 228 | 10.0 | 17.0 | 0.00 | 0.00 | 0.00 | 29 | 1015.5 |
| 20260506211520 | 54 | 229 | 11.0 | 17.0 | 0.00 | 0.00 | 0.00 | 29 | 1015.7 |
| 20260506210014 | 53 | 235 | 5.0 | 17.0 | 0.00 | 0.00 | 0.00 | 31 | 1015.9 |
| 20260506204515 | 55 | 211 | 9.0 | 14.0 | 0.00 | 0.00 | 0.00 | 29 | 1016.1 |
| 20260506203015 | 54 | 247 | 12.0 | 18.0 | 0.00 | 0.00 | 0.00 | 29 | 1016.2 |
| 20260506201516 | 54 | 257 | 6.0 | 18.0 | 0.00 | 0.00 | 0.00 | 30 | 1016.5 |
| 20260506200011 | 54 | 200 | 10.0 | 23.0 | 0.00 | 0.00 | 0.00 | 30 | 1016.7 |
| 20260506194510 | 53 | 231 | 6.0 | 21.0 | 0.00 | 0.00 | 0.00 | 30 | 1016.7 |
| 20260506193009 | 53 | 249 | 12.0 | 20.0 | 0.00 | 0.00 | 0.00 | 30 | 1016.8 |
| 20260506191507 | 53 | 203 | 9.0 | 21.0 | 0.00 | 0.00 | 0.00 | 30 | 1016.9 |
| 20260506190005 | 52 | 225 | 7.0 | 17.0 | 0.00 | 0.00 | 0.00 | 32 | 1017.0 |
| 20260506184503 | 52 | 215 | 10.0 | 16.0 | 0.00 | 0.00 | 0.00 | 32 | 1017.3 |
| 20260506183106 | 51 | 209 | 8.0 | 22.0 | 0.00 | 0.00 | 0.00 | 32 | 1017.5 |
| 20260506181626 | 50 | 243 | 6.0 | 26.0 | 0.00 | 0.00 | 0.00 | 32 | 1017.7 |
| 20260506180111 | 51 | 221 | 7.0 | 17.0 | 0.00 | 0.00 | 0.00 | 33 | 1018.0 |
| 20260506174555 | 50 | 230 | 5.0 | 15.0 | 0.00 | 0.00 | 0.00 | 34 | 1018.2 |
| 20260506173121 | 50 | 247 | 11.0 | 17.0 | 0.00 | 0.00 | 0.00 | 32 | 1018.3 |
| 20260506171601 | 49 | 241 | 13.0 | 23.0 | 0.00 | 0.00 | 0.00 | 33 | 1018.3 |
| 20260506170059 | 49 | 225 | 11.0 | 19.0 | 0.00 | 0.00 | 0.00 | 33 | 1018.5 |
| 20260506164550 | 48 | 227 | 7.0 | 12.0 | 0.00 | 0.00 | 0.00 | 35 | 1018.5 |
| 20260506163050 | 49 | 253 | 12.0 | 22.0 | 0.00 | 0.00 | 0.00 | 33 | 1018.6 |
| 20260506161550 | 48 | 242 | 10.0 | 19.0 | 0.00 | 0.00 | 0.00 | 34 | 1018.6 |
| 20260506160059 | 48 | 233 | 6.0 | 18.0 | 0.00 | 0.00 | 0.00 | 35 | 1018.5 |
| 20260506154549 | 48 | 242 | 9.0 | 16.0 | 0.00 | 0.00 | 0.00 | 35 | 1018.5 |
| 20260506153043 | 46 | 320 | 11.0 | 19.0 | 0.00 | 0.00 | 0.00 | 37 | 1018.7 |
| 20260506151545 | 46 | 290 | 8.0 | 18.0 | 0.00 | 0.00 | 0.00 | 39 | 1018.7 |
| 20260506150040 | 46 | 205 | 7.0 | 17.0 | 0.00 | 0.00 | 0.00 | 39 | 1018.8 |
| 20260506144542 | 45 | 209 | 8.0 | 16.0 | 0.00 | 0.00 | 0.00 | 42 | 1018.9 |
| 20260506143036 | 45 | 263 | 6.0 | 10.0 | 0.00 | 0.00 | 0.00 | 47 | 1018.9 |
| 20260506141532 | 43 | 227 | 6.0 | 10.0 | 0.00 | 0.00 | 0.00 | 50 | 1019.1 |
| 20260506140030 | 42 | 190 | 4.0 | 9.0 | 0.00 | 0.00 | 0.00 | 54 | 1019.2 |
| 20260506134525 | 39 | 198 | 3.0 | 5.0 | 0.00 | 0.00 | 0.00 | 64 | 1019.1 |
| 20260506133022 | 37 | 248 | 4.0 | 6.0 | 0.00 | 0.00 | 0.00 | 69 | 1019.1 |
| 20260506131538 | 34 | 253 | 3.0 | 7.0 | 0.00 | 0.00 | 0.00 | 73 | 1019.0 |
| 20260506130029 | 30 | 236 | 3.0 | 6.0 | 0.00 | 0.00 | 0.00 | 77 | 1018.8 |
| 20260506124516 | 29 | 247 | 3.0 | 5.0 | 0.00 | 0.00 | 0.00 | 77 | 1018.7 |
| 20260506123014 | 28 | 242 | 1.0 | 4.0 | 0.00 | 0.00 | 0.00 | 75 | 1018.5 |
| 20260506121515 | 28 | 220 | 2.0 | 4.0 | 0.00 | 0.00 | 0.00 | 75 | 1018.3 |
| 20260506120015 | 28 | 306 | 3.0 | 4.0 | 0.00 | 0.00 | 0.00 | 74 | 1017.9 |
| 20260506114507 | 28 | 306 | 1.0 | 3.0 | 0.00 | 0.00 | 0.00 | 73 | 1017.5 |
| 20260506113005 | 29 | 306 | 2.0 | 4.0 | 0.00 | 0.00 | 0.00 | 72 | 1017.4 |
| 20260506111504 | 29 | 306 | 3.0 | 5.0 | 0.00 | 0.00 | 0.00 | 71 | 1017.2 |
| 20260506110003 | 30 | 306 | 3.0 | 4.0 | 0.00 | 0.00 | 0.00 | 69 | 1017.2 |
| 20260506104503 | 30 | 306 | 3.0 | 4.0 | 0.00 | 0.00 | 0.00 | 71 | 1017.1 |
| 20260506103001 | 30 | 306 | 1.0 | 3.0 | 0.00 | 0.00 | 0.00 | 71 | 1017.2 |
| 20260506101601 | 29 | 306 | 2.0 | 4.0 | 0.00 | 0.00 | 0.00 | 72 | 1017.0 |
| 20260506100100 | 27 | 306 | 3.0 | 5.0 | 0.00 | 0.00 | 0.00 | 75 | 1016.9 |
| 20260506094621 | 28 | 306 | 3.0 | 5.0 | 0.00 | 0.00 | 0.00 | 72 | 1017.0 |
| 20260506093052 | 28 | 306 | 3.0 | 5.0 | 0.00 | 0.00 | 0.00 | 72 | 1016.7 |
| 20260506091550 | 30 | 306 | 3.0 | 5.0 | 0.00 | 0.00 | 0.00 | 69 | 1016.7 |
| 20260506090047 | 30 | 306 | 3.0 | 5.0 | 0.00 | 0.00 | 0.00 | 69 | 1016.5 |
| 20260506084546 | 31 | 306 | 4.0 | 8.0 | 0.00 | 0.00 | 0.00 | 66 | 1016.6 |
| 20260506083044 | 31 | 306 | 4.0 | 6.0 | 0.00 | 0.00 | 0.00 | 66 | 1016.5 |
| 20260506081543 | 33 | 306 | 4.0 | 5.0 | 0.00 | 0.00 | 0.00 | 61 | 1016.7 |
| 20260506073036 | 33 | 306 | 4.0 | 5.0 | 0.00 | 0.00 | 0.00 | 60 | 1016.5 |
| 20260506071535 | 36 | 304 | 3.0 | 4.0 | 0.00 | 0.00 | 0.00 | 56 | 1016.6 |
| 20260506061524 | 37 | 304 | 1.0 | 2.0 | 0.00 | 0.00 | 0.00 | 54 | 1016.1 |